User: anonymous   Login
Location: Unspecified
(0.0000°N, 0.0000°E)
Time: 04:37:51
(UTC+02:00)
Language:

Cosmos 773 Rocket - Orbit

View from above orbital plane
View from above orbital plane
View from above satellite
View from above satellite

Ground track
Ground track

The orbit data is extracted from the following two-line orbital elements,

1  8344U 75094B   17087.90584969 -.00000041 +00000-0 -47826-5 0  9996
2  8344 074.0541 273.5577 0022201 197.2036 162.8369 14.39084804173875
Epoch (UTC): 28 March 2017 21:44:25
Eccentricity: 0.0022201
inclination: 74.0541°
perigee height: 745 km
apogee height: 777 km
right ascension of ascending node: 273.5577°
argument of perigee: 197.2036°
revolutions per day: 14.39084804
mean anomaly at epoch: 162.8369°
orbit number at epoch: 17387

The dashed part of the orbit path shows where the satellite is in the earth's shadow,  

DLR